Hourly Data Report for October 04, 2019

All times are specified in Local Standard Time (LST). Add 1 hour to adjust for Daylight Saving Time where and when it is observed.

EUREKA CLIMATE
NUNAVUT
Current Station Operator: ECCC - MSC

79°59'21.000" N
85°56'02.000" W
10.00 m
2401199
71613
NEK

Download Data

Hourly Data (October 2019)
Hourly Data Report for October 4, 2019
TIME Temp Definition
°C
Dew Point Definition
°C
Rel Hum Definition
%
Wind Dir Definition
10's deg

Wind Spd Definition
km/h
Visibility Definition
km
Stn Press Definition
kPa
Hmdx Definition


Wind Chill Definition


Weather Definition


00:00 -2.7 -3.9 91 28 11   100.02   -7 LegendNANA
01:00 -3.1 -4.3 91 28 17   99.97   -9 LegendNANA
02:00 -2.7 -3.9 91 30 13   99.93   -7 LegendNANA
03:00 -2.6 -4.0 90 29 10   99.91   -6 LegendNANA
04:00 -2.9 -4.0 92 29 15   99.86   -8 LegendNANA
05:00 -2.8 -4.0 92 27 16   99.83   -8 LegendNANA
06:00 -3.6 -4.7 92 34 14   99.77   -9 LegendNANA
07:00 -3.4 -4.6 92 30 6   99.76   -6 LegendNANA
08:00 -4.6 -5.6 93 1 11   99.74   -9 LegendNANA
09:00 -5.8 -6.6 94 1 20   99.68   -13 LegendNANA
10:00 -7.1 -7.7 95 1 14   99.67   -13 LegendNANA
11:00 -6.8 -7.5 95 2 14   99.64   -13 LegendNANA
12:00 -6.1 -7.0 93 2 12   99.63   -11 LegendNANA
13:00 -5.0 -5.7 95 36 12   99.61   -10 LegendNANA
14:00 -5.0 -5.6 95 35 12   99.60   -10 LegendNANA
15:00 -4.8 -5.6 94 1 7   99.61   -8 LegendNANA
16:00 -3.7 -4.4 95 30 6   99.63   -6 LegendNANA
17:00 -4.6 -5.5 94 33 2   99.63   -5 LegendNANA
18:00 -5.0 -6.0 93 1 7   99.66   -8 LegendNANA
19:00 -5.6 -6.3 95 36 7   99.68   -9 LegendNANA
20:00 -5.9 -6.5 95 2 9   99.68   -10 LegendNANA
21:00 -5.3 -5.9 96 3 2   99.69   -6 LegendNANA
22:00 -6.7 -7.4 95 2 11   99.73   -12 LegendNANA
23:00 -6.8 -7.2 97 2 13   99.73   -12 LegendNANA

Notes on Data Quality.

Legend

  • E = Estimated
  • M = Missing
  • NA = Not Available
Date modified: